Regional Weather Roundup
Issued by NWS Goodland, KS

Home | Current Version | Previous Version | Text Only | Print | Product List | Glossary On
Versions: 1 2 3 4 5 6 7 8 9 10 11 12 13 14 15 16 17 18 19 20 21 22 23 24 25 26 27 28 29 30 31 32 33 34 35 36 37 38 39 40 41 42 43 44 45 46 47 48 49 50
000
ASUS43 KGLD 220959
RWRGLD

GOODLAND FORECAST AREA HOURLY WEATHER ROUNDUP
NATIONAL WEATHER SERVICE GOODLAND KS
400 AM MDT WED OCT 22 2014

...OFFICIAL OBSERVATIONS...

CITY           SKY/WX    TMP DP  RH WIND       PRES   REMARKS
GOODLAND KS    MOCLDY    53  47  79 S10       29.95S
HILL CITY KS   CLEAR     59  51  75 S9        29.98S
IMPERIAL NEB   MOCLDY    57  46  66 CALM      29.92R
MCCOOK NEB     MOCLDY    59  50  72 S9        29.93S
AKRON CO       CLOUDY    54  44  69 N12       29.97S
BURLINGTON CO  CLOUDY    56  47  71 SW10      29.97R
LIMON CO       MOCLDY    49  41  74 CALM      30.00S
$$

...UNOFFICIAL OBSERVATIONS...

CITY           SKY/WX    TMP DP  RH WIND       PRES   REMARKS
COLBY KS       CLEAR     55  52  88 SE14      29.96R
GOVE KS          N/A     57  32  39 MISG        N/A
NORTON KS      CLEAR     57  46  67 S8        29.95S
SHARON SPRINGS   N/A     53  48  83 S8          N/A
TRENTON NEB      N/A     59  32  36 S12         N/A
KIT CARSON CO    N/A     51  45  81 CALM        N/A
YUMA CO          N/A     54  44  69 CALM        N/A
$$



USA.gov is the U.S. government's official web portal to all federal, state and local government web resources and services.